Flag for Brazil Weather past 2 weeks in Recife, Pernambuco, Brazil

Now
81 °F

Passing clouds.


Feels Like: 84 °F
Forecast: 78 / 84 °F
Wind: 7 mph from East

Location: Recife Aeroporto

Current Time: Jan 27, 2015 at 6:29:47 AM

Latest Report: Jan 27, 2015 at 6:00 AM


Visibility: N/A

Pressure: 29.95 "Hg

Humidity: 70%

Dew point: 70 °F

Location of RecifeLocation

Historic Weather in Recife — Graph

°F

Recife temperature yesterday

Maximum temperature yesterday: 88 °F (at 12:00 PM)
Minimum temperature yesterday: 79 °F (at 2:00 AM)
Average temperature yesterday: 82 °F

Past Weeks' High & Low Weather Summary

 TemperatureHumidityPressure
High88 °F (Jan 21, 1:00 PM)94% (Jan 24, 8:00 AM)30.04 "Hg (Jan 24, 8:00 AM)
Low75 °F (Jan 15, 4:00 AM)55% (Jan 23, 12:00 PM)29.86 "Hg (Jan 20, 2:00 PM)
Average82 °F73%29.94 "Hg
* Reported Jan 12 5:00 AM — Jan 27 5:00 AM, Recife, Weather by CustomWeather, © 2014

Note: Actual official high and low records may vary slightly from our data, if they occured in-between our weather recording intervals... More about our weather records

Advertising

Recife weather history for previous 24 hours

 ConditionsComfort  
Time TempWeatherWind HumidityBarometerVisibility
5:00 AM
Jan 27
79 °FPassing clouds.10 mph74%29.92 "HgN/A
4:00 AM79 °FPassing clouds.9 mph74%29.92 "HgN/A
3:00 AM79 °FPassing clouds.7 mph74%29.92 "HgN/A
2:00 AM79 °FPassing clouds.9 mph74%29.92 "HgN/A
1:00 AM81 °FPassing clouds.9 mph70%29.92 "HgN/A
12:00 AM79 °FPassing clouds.12 mph70%29.95 "HgN/A
11:00 PM
Jan 26
81 °FPassing clouds.8 mph74%29.98 "HgN/A
10:00 PM81 °FPassing clouds.8 mph70%29.98 "HgN/A
9:00 PM81 °FPassing clouds.10 mph74%29.95 "HgN/A
8:00 PM81 °FPassing clouds.8 mph74%29.95 "HgN/A
7:00 PM81 °FClear.9 mph74%29.92 "Hg10 mi
6:00 PM81 °FSunny.9 mph74%29.92 "Hg10 mi
5:00 PM82 °FSunny.12 mph70%29.89 "Hg10 mi
4:00 PM84 °FSunny.13 mph66%29.89 "Hg10 mi
3:00 PM84 °FSunny.13 mph66%29.89 "Hg10 mi
2:00 PM86 °FPassing clouds.13 mph59%29.92 "HgN/A
1:00 PM86 °FPassing clouds.12 mph59%29.92 "HgN/A
12:00 PM88 °FPassing clouds.12 mph59%29.95 "HgN/A
11:00 AM86 °FPassing clouds.10 mph62%29.98 "HgN/A
10:00 AM86 °FPassing clouds.10 mph62%29.98 "HgN/A
9:00 AM86 °FScattered clouds.9 mph62%29.98 "HgN/A
8:00 AM84 °FScattered clouds.9 mph62%29.98 "HgN/A
7:00 AM81 °FPassing clouds.8 mph74%29.95 "HgN/A
6:00 AM81 °FPassing clouds.6 mph74%29.95 "HgN/A
Weather by CustomWeather, © 2014

See weather overviewHow to use our weather pages